Regional Weather Roundup
Issued by NWS

Current Version | Previous Version | Text Only | Print | Product List | Glossary On
Versions: 1 2 3 4 5 6 7 8 9 10 11 12 13 14 15 16 17 18 19 20 21 22 23 24 25 26 27 28 29 30 31 32 33 34 35 36 37 38 39 40 41 42 43 44 45 46 47 48 49 50
000
ASUS42 KTBW 271210
RWRFL
FLORIDA REGIONAL WEATHER ROUNDUP
NATIONAL WEATHER SERVICE TAMPA BAY RUSKIN FL
800 AM EDT WED AUG 27 2014

NOTE: "FAIR" INDICATES FEW OR NO CLOUDS BELOW 12,000 FEET WITH NO
SIGNIFICANT WEATHER AND/OR OBSTRUCTIONS TO VISIBILITY.


FLZ001>010-012>015-112-114-115-271300-
PANHANDLE FLORIDA

CITY           SKY/WX    TMP DP  RH WIND       PRES   REMARKS
PENSACOLA      CLEAR     73  70  90 NE6       30.01R
PENSACOLA NAS  MOCLDY    74  72  93 NE3       30.00R
MILTON NAS     PTCLDY    71  66  84 NE3       30.03R
CRESTVIEW      CLEAR     70  67  90 E3        30.04R
DUKE FIELD     FAIR      71  70  98 NE3       30.03R
VALPARAISO     PTCLDY    76  70  82 E3        30.02R
MARY ESTHER    CLEAR     74  68  79 E7        30.01R
TRI COUNTY     FAIR      69  68  96 CALM      30.05R
PANAMA CITY    FAIR      73  70  90 NE6       30.01S
TYNDALL AFB    CLEAR     74  72  95 NE6       30.03R
APALACHICOLA   CLEAR     75  71  87 NE6       30.01R

STATION/POSITION SKY/WX   TEMP    WIND        PRES    WAVE   SWELL
                          AIR SEA DIR/SP/G            HT/PER HT/PER
                          (F)     (DEG/KT/KT) (MB)    (FT/S) (FT/S)
30.1N   87.6W              82 85   50/  8/ 10 1015.6R   2/ 6   2/ 6
29.2N   88.2W              84 85   70/ 14/ 17 1014.9R
28.8N   86.0W              84 86   90/ 16/ 19 1014.6R   4/ 6
PANAMA CITY BEAC           76 85   70/  4/ 10 1016.2R
CAPE SAN BLAS    NOT AVBL
TOWER C                    81      90/ 15/ 17 1016.0R
28.5N   84.5W              82 86   80/ 14/ 17 1015.0R   4/ 6

$$
FLZ011-016>038-118-127-128-134-139-239-271300-
NORTH FLORIDA

CITY           SKY/WX    TMP DP  RH WIND       PRES   REMARKS
MARIANNA       CLEAR     72  71  97 CALM      30.03R
TALLAHASSEE    PTCLDY    72  68  87 CALM      30.03R
PERRY          SUNNY     70  70 100 NE3       30.03R
CROSS CITY       N/A     70  68  93 N3        30.01R
LAKE CITY      FAIR      68  68 100 N5        30.03R
GAINESVILLE    SUNNY     70  68  93 N3        30.01R
MAYPORT NAS    MOSUNNY   78  71  79 CALM      29.99R
JACKSONVILLE   MOSUNNY   70  69  97 NW3       30.01R
JAX NAS        MOSUNNY   76  69  79 NW7       30.01R
JAX CRAIG      MOSUNNY   75  71  87 NW6       30.00R
JAX CECIL      SUNNY     66  66 100 N5        30.01R
FERNANDINA BEA PTSUNNY   75  68  78 NW7       29.99R
ST AUGUSTINE   SUNNY     80  70  71 N7        30.00R

STATION/POSITION SKY/WX   TEMP    WIND        PRES    WAVE   SWELL
                          AIR SEA DIR/SP/G            HT/PER HT/PER
                          (F)     (DEG/KT/KT) (MB)    (FT/S) (FT/S)
SHELL POINT                74      20/  2/  4   N/A
KEATON BEACH               71      30/  4/  6 1016.6R
CEDAR KEY                  74      30/  5/  7 1016.3R
FERNANDINA                 77 82   10/  8/ 12 1015.3R
30.7N   81.3W                 83                N/A     6/11   2/11
MAYPORT                    77     330/  4/  5   N/A
31.4N   80.9W              80 84   20/ 14/ 16 1015.8R   5/ 8   3/ 8
ST AUGUSTINE               81      20/ 12/ 14 1016.0R

$$
FLZ040-043>046-052-053-057-058-063-144-271300-
INTERIOR CENTRAL FLORIDA

CITY           SKY/WX    TMP DP  RH WIND       PRES   REMARKS
OCALA          SUNNY     73  70  88 NE3       30.00R
LEESBURG       MOSUNNY   76  72  87 N5        30.00R
SANFORD        CLOUDY    76  73  91 N3        29.98R
ORLANDO EXEC   SUNNY     78  72  81 N5        29.98R
ORLANDO INTL   MOSUNNY   76  72  87 N5        29.98R
KISSIMMEE      MOSUNNY   79  75  89 N5        29.98R
WINTER HAVEN   PTSUNNY   76  73  91 N7        29.99R
LAKELAND       MOSUNNY   77  72  83 N5        29.98R
BARTOW         MOSUNNY   75  75 100 NE6       29.98S
OKEECHOBEE       N/A     70  70 100 MISG        N/A

$$
FLZ041-047-054-059-064-141-147-271300-
EAST CENTRAL FLORIDA

CITY           SKY/WX    TMP DP  RH WIND       PRES   REMARKS
ORMOND BEACH   SUNNY     73  72  94 W5        29.98R
DAYTONA BEACH  MOSUNNY   76  73  91 CALM      29.97S
DELAND         SUNNY     75  72  88 N5        29.99R
NEW SMYRNA BEA SUNNY     81  72  74 N3        29.97R
JFK SPACE CTR  PTSUNNY   75  73  93 W6        29.96S
TITUSVILLE     PTSUNNY   75  70  83 N12       29.97R
CAPE CANAVERAL MOSUNNY   78  73  83 N7        29.95S
PATRICK AFB    MOSUNNY   79  74  85 N9        29.96R
MELBOURNE      MOSUNNY   76  74  93 N9        29.95R
VERO BEACH     SUNNY     73  72  96 W3        29.95R
FT PIERCE      SUNNY     75  71  87 NW3       29.95R
STUART         MOSUNNY   81  70  69 NE7       29.95R

STATION/POSITION SKY/WX   TEMP    WIND        PRES    WAVE   SWELL
                          AIR SEA DIR/SP/G            HT/PER HT/PER
                          (F)     (DEG/KT/KT) (MB)    (FT/S) (FT/S)
28.5N   80.2W              81 82  330/  4/  6 1014.0R
28.9N   78.5W              82 84   10/ 10/ 12 1013.1R   8/ 9   8/ 9
TRIDENT PIER               78 83  350/  4/  6 1013.9S
28.4N   80.5W                 82                N/A     4/10   2/11
27.6N   80.2W                 83                N/A     5/10   2/11

$$
FLZ050-056-061-142-242-148-248-149-249-151-251-155-255-
160-260-271300-
WEST CENTRAL FLORIDA

CITY           SKY/WX    TMP DP  RH WIND       PRES   REMARKS
CRYSTAL RIVER  PTSUNNY   73  70  88 NE3       29.99R
INVERNESS      PTSUNNY   73  63  68 CALM      30.00R
BROOKSVILLE    CLOUDY    75  72  90 NE5       30.00R
ZEPHYRHILLS    CLOUDY    70  68  94 N5        30.00R
CLEARWATER     PTSUNNY   78  73  84 NE10      29.97R
TAMPA INTL     MOSUNNY   77  71  82 NE6       29.98R
TAMPA EXEC     PTSUNNY   77  72  83 CALM      29.99R
MACDILL AFB    SUNNY     76  76 100 E6        29.97R
ST PETERSBURG  PTSUNNY   80  73  79 E12       29.96R
SARASOTA       SUNNY     76  72  87 NE6       29.95R
VENICE           N/A    N/A N/A N/A MISG        N/A

STATION/POSITION SKY/WX   TEMP    WIND        PRES    WAVE   SWELL
                          AIR SEA DIR/SP/G            HT/PER HT/PER
                          (F)     (DEG/KT/KT) (MB)    (FT/S) (FT/S)
CEDAR KEY                  74      30/  5/  7 1016.3R
28.5N   84.5W              82 86   80/ 14/ 17 1015.0R   4/ 6
27.3N   84.3W                 87                N/A     6/ 6
CLEARWATER BEACH           78 85   60/  6/  9 1014.3R
MIDDLE TAMPA BAY           79      80/ 13/ 14 1014.9R
VENICE                     76 87   40/  6/  9 1014.3R

$$
FLZ066-069-070-075>078-162-262-165-265-271300-
SOUTHWEST FLORIDA AND KEYS

CITY           SKY/WX    TMP DP  RH WIND       PRES   REMARKS
PUNTA GORDA    SUNNY     74  71  91 NE6       29.97R
FT MYERS       SUNNY     75  72  90 NE8       29.94R
SOUTHWEST INTL SUNNY     74  70  87 NE6       29.95R
NAPLES         SUNNY     75  70  84 NE7       29.93R
MARCO ISLAND   SUNNY     73  72  94 NE8       29.94R
MARATHON       PTSUNNY   85  74  69 NE9       29.90R
KEY WEST NAS   MOSUNNY   83  76  79 NE12      29.89R
KEY WEST INTL  MOSUNNY   84  75  74 NE9       29.89R

STATION/POSITION SKY/WX   TEMP    WIND        PRES    WAVE   SWELL
                          AIR SEA DIR/SP/G            HT/PER HT/PER
                          (F)     (DEG/KT/KT) (MB)    (FT/S) (FT/S)
VENICE                     76 87   40/  6/  9 1014.3R
NAPLES                     75      30/  5/  8 1014.1R
DRY TORTUGAS               85      80/ 17/ 19 1012.3R
NW FL BAY                  82      50/ 10/ 12 1012.4R
SAND KEY                   83      50/ 19/ 21 1011.9R
SOMBRERO KEY               85      90/ 14/ 16 1012.9R
LONG KEY                   85 86   60/ 11/ 13 1013.4R
MOLASSES REEF              85 87   90/ 10/ 12 1012.8R

$$
FLZ067-068-071>074-168-172>174-271300-
SOUTHEAST FLORIDA

CITY           SKY/WX    TMP DP  RH WIND       PRES   REMARKS
W PALM BEACH   MOSUNNY   78  73  84 NW5       29.93R
FT LAUDER-EXEC MOSUNNY   78  74  87 N3        29.93R
FT LAUDERDALE  PTSUNNY   80  72  76 N5        29.92R
POMPANO BEACH  MOSUNNY   82  71  69 N3        29.93R
PEMBROKE PINES MOSUNNY   79  73  82 N3        29.94R
OPA LOCKA      SUNNY     79  71  76 N6        29.93R
MIAMI          MOSUNNY   80  71  74 N5        29.93R
WEST KENDALL   SUNNY     80  71  74 NE6       29.92R
HOMESTEAD      SUNNY     80  72  78 N6        29.92R

STATION/POSITION SKY/WX   TEMP    WIND        PRES    WAVE   SWELL
                          AIR SEA DIR/SP/G            HT/PER HT/PER
                          (F)     (DEG/KT/KT) (MB)    (FT/S) (FT/S)
PORT EVERGLADES            84      50/ 10/ 13 1013.1
VIRGINIA KEY               84 85   70/  7/ 10   N/A
LAKE WORTH                 83 85   30/  9/ 12 1013.1R
FOWEY ROCKS                84 86   50/ 10/ 12 1013.4R
SETTLEMENT POINT           82     350/  2/  3 1014.1R

$$



USA.gov is the U.S. government's official web portal to all federal, state and local government web resources and services.